Location: Palo Alto
(37.4420°N, 122.1420°W)
Time: 20:05:04
(UTC-07:00)

ISS - All Passes

Search period start: 20 October 2017 00:00
Search period end: 30 October 2017 00:00
Orbit: 401 x 408 km, 51.6° (Epoch: 21 October)

Date Brightness Start Highest point End Pass type
(mag) Time Alt. Az. Time Alt. Az. Time Alt. Az.
20 Oct - 09:28:21 10° S 09:30:45 19° SE 09:33:11 10° E daylight
20 Oct - 11:04:00 10° WSW 11:07:02 36° NW 11:10:05 10° NE daylight
20 Oct - 15:57:30 10° NNW 15:59:43 17° NNE 16:01:56 10° ENE daylight
20 Oct - 17:33:13 10° NW 17:36:29 68° SW 17:39:44 10° SE daylight
21 Oct - 10:11:26 10° SW 10:14:40 72° NW 10:17:55 10° NE daylight
21 Oct - 11:49:59 10° NW 11:51:37 13° NNW 11:53:16 10° N daylight
21 Oct - 15:05:48 10° N 15:07:07 12° NNE 15:08:25 10° NE daylight
21 Oct - 16:40:56 10° NW 16:44:10 57° NE 16:47:23 10° ESE daylight
21 Oct - 18:18:51 10° WSW 18:20:16 12° SW 18:21:41 10° SSW daylight
22 Oct - 09:19:12 10° SSW 09:22:22 52° SE 09:25:33 10° ENE daylight
22 Oct - 10:56:38 10° WNW 10:59:02 19° NNW 11:01:27 10° NNE daylight
22 Oct - 15:48:48 10° NNW 15:51:45 30° NNE 15:54:41 10° E daylight
22 Oct - 17:25:24 10° WNW 17:28:07 24° SW 17:30:51 10° S daylight
23 Oct - 08:27:26 10° S 08:30:08 25° SE 08:32:52 10° ENE daylight
23 Oct - 10:03:36 10° W 10:06:31 30° NNW 10:09:27 10° NNE daylight
23 Oct - 14:56:47 10° NNW 14:59:14 19° NNE 15:01:40 10° ENE daylight
23 Oct - 16:32:42 10° WNW 16:35:53 52° SW 16:39:04 10° SSE daylight
24 Oct - 07:36:34 10° SSE 07:37:58 12° SE 07:39:24 10° ESE daylight
24 Oct - 09:10:53 10° WSW 09:14:04 56° NW 09:17:17 10° NE daylight
24 Oct - 10:49:52 10° NW 10:51:07 12° NNW 10:52:23 10° N daylight
24 Oct - 14:04:57 10° N 14:06:37 13° NNE 14:08:16 10° NE daylight
24 Oct - 15:40:18 10° NW 15:43:34 73° NE 15:46:49 10° SE daylight
25 Oct - 08:18:29 10° SW 08:21:42 69° SE 08:24:57 10° NE daylight
25 Oct - 09:56:18 10° WNW 09:58:29 16° NNW 10:00:40 10° NNE daylight
25 Oct - 14:48:04 10° NW 14:51:08 37° NE 14:54:12 10° ESE daylight
25 Oct - 16:25:00 10° W 16:27:25 19° SW 16:29:50 10° S daylight
26 Oct - 07:26:30 10° SSW 07:29:25 31° SE 07:32:21 10° ENE daylight
26 Oct - 09:03:07 10° W 09:05:54 25° NNW 09:08:40 10° NNE daylight
26 Oct - 13:55:59 10° NNW 13:58:37 22° NNE 14:01:14 10° E daylight
26 Oct - 15:32:06 10° WNW 15:35:10 39° SW 15:38:15 10° SSE daylight
27 Oct - 06:35:09 10° SSE 06:37:11 16° SE 06:39:14 10° E visible
27 Oct - 08:10:16 10° WSW 08:13:23 44° NW 08:16:32 10° NE daylight
27 Oct - 09:49:48 10° NNW 09:50:31 11° NNW 09:51:15 10° N daylight
27 Oct - 13:04:01 10° NNW 13:05:59 15° NNE 13:07:57 10° ENE daylight
27 Oct - 14:39:34 10° NW 14:42:50 87° SW 14:46:05 10° SE daylight
28 Oct - 07:17:42 10° SW 07:20:57 89° SE 07:24:12 10° NE daylight
28 Oct - 08:55:54 10° WNW 08:57:49 15° NNW 08:59:44 10° NNE daylight
28 Oct - 12:12:27 10° N 12:13:16 11° NNE 12:14:06 10° NNE daylight
28 Oct - 13:47:15 10° NW 13:50:24 45° NE 13:53:33 10° ESE daylight
28 Oct - 15:24:35 10° W 15:26:35 15° SW 15:28:35 10° SSW daylight
29 Oct - 06:25:31 10° SSW 06:28:35 40° SE 06:31:41 10° ENE visible
29 Oct - 08:02:34 10° W 08:05:10 22° NNW 08:07:46 10° NNE daylight
29 Oct - 12:55:04 10° NNW 12:57:52 26° NNE 13:00:40 10° E daylight
29 Oct - 14:31:25 10° WNW 14:34:20 31° SW 14:37:15 10° SSE daylight
